This is the latest recevied weather packets stored in our database for station/object LX0APE-4. If no packets are shown the sender has not sent any weather packets the latest 1 day(s).
| Time | Temp. | Humidity | Pressure | Rain* | Wind** | Luminosity | Snow |
|---|---|---|---|---|---|---|---|
| 1777986112 | 13.89° C | 83% | 5005.3 hPa | 0.51 mm | 0 m/s | - | - |
| 1777985812 | 13.89° C | 83% | 5005.3 hPa | 0.51 mm | 0 m/s | - | - |
| 1777985512 | 13.89° C | 83% | 5005.5 hPa | 1.02 mm | 0 m/s | - | - |
| 1777985212 | 13.89° C | 83% | 5005.4 hPa | 1.02 mm | 0 m/s | - | - |
| 1777984912 | 13.89° C | 83% | 5005.4 hPa | 1.02 mm | 0 m/s | - | - |
| 1777984612 | 13.89° C | 83% | 5005.5 hPa | 1.02 mm | 0 m/s | - | - |
| 1777984312 | 13.89° C | 83% | 5005.4 hPa | 1.02 mm | 0 m/s | - | - |
| 1777984012 | 14.44° C | 82% | 5005.4 hPa | 0.51 mm | 0 m/s | - | - |
| 1777983712 | 14.44° C | 81% | 5005.6 hPa | 0.51 mm | 0 m/s | - | - |
| 1777983412 | 14.44° C | 81% | 5005.6 hPa | 0.51 mm | 0 m/s | - | - |
| 1777983112 | 14.44° C | 80% | 5005.5 hPa | 0.51 mm | 0 m/s | - | - |
| 1777982812 | 15° C | 80% | 5005.6 hPa | 0.51 mm | 0 m/s | - | - |
| 1777982512 | 15° C | 80% | 5005.5 hPa | 0.51 mm | 0 m/s | - | - |
| 1777982212 | 15° C | 79% | 5005.5 hPa | 0.51 mm | 0 m/s | - | - |
| 1777981912 | 15° C | 78% | 5005.6 hPa | 0 mm | 0 m/s | - | - |
| 1777981612 | 15.56° C | 76% | 5005.5 hPa | 0 mm | 0 m/s | - | - |
| 1777981312 | 15.56° C | 74% | 5005.6 hPa | 0 mm | 0 m/s | - | - |
| 1777981012 | 16.11° C | 71% | 5005.7 hPa | 0 mm | 0 m/s | - | - |
| 1777980712 | 17.22° C | 68% | 5005.7 hPa | 0 mm | 0 m/s | - | - |
| 1777980412 | 17.78° C | 65% | 5005.7 hPa | 0 mm | 0 m/s | - | - |
| 1777980112 | 18.33° C | 63% | 5005.6 hPa | 0 mm | 0 m/s | - | - |
| 1777979812 | 18.89° C | 62% | 5005.7 hPa | 0 mm | 0 m/s | - | - |
| 1777979512 | 18.89° C | 62% | 5005.5 hPa | 0 mm | 0 m/s | - | - |
| 1777979212 | 18.89° C | 62% | 5005.6 hPa | 0 mm | 0 m/s | - | - |
| 1777978912 | 18.89° C | 63% | 5005.6 hPa | 0 mm | 0 m/s | - | - |
* Rain latest hour (hover to see other rain measurements)
** Current wind speed in m/s (hover to see current wind gust speed)